Regional Weather Roundup
Issued by NWS

Home | Current Version | Previous Version | Graphics & Text | Print | Product List | Glossary On
Versions: 1 2 3 4 5 6 7 8 9 10 11 12 13 14 15 16 17 18 19 20 21 22 23 24 25 26 27 28 29 30 31 32 33 34 35 36 37 38 39 40 41 42 43 44 45 46 47 48 49 50
000
ASUS45 KBOI 231510
RWRID
WEATHER ROUNDUP FOR IDAHO
NATIONAL WEATHER SERVICE BOISE ID
800 AM MST SUN NOV 23 2014

NOTE: "FAIR" INDICATES FEW OR NO CLOUDS BELOW 12000 FEET
WITH NO SIGNIFICANT WEATHER AND/OR OBSTRUCTIONS TO VISIBILITY

IDZ012-014-231600-
SOUTHWEST IDAHO


CITY           SKY/WX    TMP DP  RH WIND       PRES   REMARKS
BOISE          CLOUDY    31  26  82 CALM      30.29R
CALDWELL       NOT AVBL
MOUNTAIN HOME  MOCLDY    32  30  93 NW9       30.28R WCI  24
$$

IDZ016-017-231600-
SOUTHCENTRAL IDAHO


CITY           SKY/WX    TMP DP  RH WIND       PRES   REMARKS
BURLEY         CLEAR     30  23  75 W21G29    30.16R WCI  17
JEROME         CLEAR     29  24  82 SW18      30.21R WCI  16
TWIN FALLS     CLEAR     30  22  72 SW20      30.23R WCI  17
$$

IDZ019>023-231600-
SOUTHEAST IDAHO


CITY           SKY/WX    TMP DP  RH WIND       PRES   REMARKS
IDAHO FALLS    CLEAR     25  21  85 SW10      30.08R WCI  15
POCATELLO      PTCLDY    29  26  89 SW14      30.15R WCI  18
REXBURG        CLEAR     24  21  88 S6        30.05R WCI  17
$$

IDZ006-010-011-018-031-032-231600-
CENTRAL IDAHO MOUNTAINS


CITY           SKY/WX    TMP DP  RH WIND       PRES   REMARKS
MCCALL         CLOUDY    26  22  84 CALM      30.16R
HAILEY         PTCLDY    19  12  73 NW7       30.14R WCI  10
STANLEY          N/A     23  15  71 CALM      30.14R
SALMON         CLOUDY    28  21  74 E3        30.12R
CHALLIS        CLOUDY    24  15  68 S5        30.11R WCI  18
$$

IDZ002-004-006-007-026-231600-
NORTHERN IDAHO


CITY           SKY/WX    TMP DP  RH WIND       PRES   REMARKS
LEWISTON       PTCLDY    39  31  72 CALM      30.18F
LOWELL           N/A     35  33  92 CALM      30.25R
COEUR D`ALENE  CLOUDY    30  28  93 S7        30.12S WCI  23
MULLAN PASS    FOG       24  21  88 VRB3      30.01R VSB 3/4
$$



USA.gov is the U.S. government's official web portal to all federal, state and local government web resources and services.